453P/WISE-Lemmon (2023)

Japanese version
Home page
Updated on March 27, 2023

---------------------------------------------------------------------

* Profile

Designation 453P/2022 V1
Discovery Date November 1, 2022
Magnitude 19.3 mag
Discoverer Mount Lemmon Survey

* Pictures

* Orbital Elements

Epoch 2023 Feb. 25.0 TT = JDT 2460000.5
T 2023 Mar. 3.01273 TT                                  Rudenko
q   2.2785072            (2000.0)            P               Q
n   0.07731213     Peri.   70.82251     -0.33185011     -0.89102863
a   5.4572136      Node    42.89771     +0.59947704     -0.45272021
e   0.5824779      Incl.   27.06803     +0.72835622     -0.03335260
P  12.7
>From 311 observations 2010 Jan. 29-2023 Mar. 17, mean residual 0".6.

* Magnitudes Graph

        m1 = 13.5 + 5 log d + 10.0 log r

---------------------------------------------------------------------

The orbital elements are published on M.P.E.C. 2023-F81.
The magnitudes graphs are made with Comet for Windows.

---------------------------------------------------------------------

Copyright(C) Seiichi Yoshida (comet@aerith.net). All rights reserved.